Probability
3 3 3 3 1 0 1 2 3 4 5 6 6 6 6 4 1 0 0 0 0 1 2 1 0 0 0 0 0 0 0 0 0 1 1 1 1 1 1 1 0 0 0
3 2 2 3 2 1 0 1 3 3 4 5 6 6 6 4 2 1 0 0 0 1 2 2 1 0 0 0 0 0 0 0 0 1 2 2 2 2 2 1 0 0 0
3 2 2 3 3 2 1 1 2 3 3 4 6 6 6 5 3 1 0 0 0 0 1 2 2 1 0 0 0 0 0 0 0 1 1 1 1 1 1 1 0 0 0
3 3 2 3 3 2 1 0 1 2 2 3 5 6 6 6 4 2 1 0 0 0 1 2 3 2 1 0 0 0 0 0 0 0 0 0 0 0 0 0 0 0 0
1 2 2 3 3 2 0 0 0 1 2 3 5 6 6 6 4 3 2 1 0 0 0 1 2 2 1 0 0 0 0 0 0 0 0 0 0 1 0 0 0 0 0
0 1 1 2 3 2 1 0 0 1 2 3 5 6 6 6 4 3 3 2 1 0 0 0 1 1 0 0 0 0 0 0 0 0 0 0 0 0 0 0 0 1 1
0 0 0 1 2 3 2 1 0 0 1 3 5 6 6 5 4 3 3 2 1 0 0 0 0 0 0 0 0 0 0 0 0 0 0 0 0 0 0 0 0 1 2
0 0 0 0 1 2 2 1 0 0 1 2 4 4 4 4 3 3 3 2 1 0 0 0 0 0 0 0 0 0 0 0 0 0 0 0 0 0 0 0 0 1 2
0 0 0 0 0 1 2 2 1 0 0 1 3 3 2 1 1 1 2 1 0 0 0 0 0 0 0 0 0 0 0 0 0 0 0 0 0 0 0 0 0 0 1
0 0 0 0 0 0 1 2 2 1 0 1 2 2 1 0 0 0 0 0 0 0 0 0 0 0 0 0 0 0 0 0 0 0 0 0 0 0 0 0 0 0 0
0 0 0 0 0 0 1 2 2 1 0 0 1 2 1 0 0 0 0 0 0 0 0 0 0 0 0 0 0 0 0 0 0 0 0 0 0 0 0 0 0 0 0
1 0 0 0 0 0 0 1 1 0 0 0 1 1 1 0 0 0 0 0 0 0 0 0 0 0 0 0 0 0 0 0 0 0 0 0 0 0 0 0 0 0 0
2 1 1 0 0 0 0 0 0 0 0 0 0 0 0 0 0 0 0 0 0 0 0 0 0 0 0 0 0 0 0 0 0 0 0 0 0 0 0 0 0 0 0
3 3 2 1 0 0 0 0 0 0 0 0 0 0 0 0 0 0 0 0 0 0 0 0 0 0 0 0 0 0 0 0 0 0 0 0 0 0 0 0 0 0 0
3 3 3 2 1 0 0 0 0 0 0 0 0 0 0 0 0 0 0 0 0 0 0 0 0 0 0 0 0 0 0 0 0 0 0 0 0 0 0 0 0 0 0
1 2 3 2 1 0 0 0 0 0 0 0 0 0 0 0 0 0 0 0 0 0 0 0 0 0 0 0 0 0 0 0 0 0 0 0 0 0 0 0 0 0 0
0 1 2 1 0 0 0 0 0 0 0 0 0 0 1 1 1 0 0 0 0 0 0 0 0 0 0 0 0 0 0 0 0 0 0 0 0 0 0 0 0 0 0
0 0 0 0 0 0 0 0 0 0 0 0 0 0 1 2 1 0 0 0 0 0 0 0 0 0 0 0 0 0 0 0 0 0 0 0 0 0 0 0 0 0 0
0 0 0 0 0 0 0 0 0 0 0 0 0 0 1 1 0 0 0 0 0 0 0 0 0 0 0 0 0 0 0 0 0 0 0 0 0 0 0 0 0 0 0
0 0 0 0 0 0 0 0 0 0 0 0 0 0 0 0 0 0 0 0 0 0 0 0 0 0 0 0 0 0 0 0 0 0 0 0 0 0 0 0 0 0 0
0 0 0 0 0 0 0 0 0 0 0 0 0 0 0 0 0 0 0 0 0 0 0 0 0 0 0 0 0 0 0 0 0 0 0 0 0 0 0 0 0 0 0
0 0 0 0 0 0 0 0 0 0 0 0 0 0 0 0 0 0 0 0 0 0 0 0 0 0 0 0 0 0 0 0 0 0 0 0 0 0 0 0 0 0 0
0 0 0 0 0 0 0 0 0 0 0 0 0 0 0 0 0 0 0 0 0 0 0 0 0 0 0 0 0 0 0 0 0 0 0 0 0 0 0 0 0 0 0
0 0 0 0 0 0 0 0 0 0 0 0 0 0 0 0 0 0 0 0 0 0 0 0 0 0 0 0 0 0 0 0 0 0 0 0 0 0 0 0 0 0 0
0 0 0 0 0 0 0 0 0 0 0 0 0 0 0 0 0 0 0 0 0 0 0 0 0 0 0 0 0 0 0 0 0 0 0 0 0 0 0 0 0 0 0
0 0 0 0 0 0 0 0 0 0 0 0 0 0 0 0 0 0 0 0 0 0 0 0 0 0 0 0 0 0 0 0 0 0 0 0 0 0 0 0 0 0 0
Wind_Speed
0 0 0 0 1 0 0 1 1 1 1 1 1 1 1 2 2 1 1 2 2 2 3 3 3 3 4 4 4 4 4 4 4 4 5 6 6 6 6 6 6 7 7
0 0 1 1 1 1 1 1 1 1 2 1 1 2 2 2 2 2 2 2 2 3 4 4 4 5 5 5 5 5 4 4 5 5 6 6 6 6 7 7 7 8 8
0 0 1 1 1 1 1 1 1 1 1 1 2 2 2 2 2 2 2 2 2 3 3 4 5 5 5 5 5 5 5 5 6 6 6 6 7 7 8 8 8 8 9
1 1 1 2 2 1 1 1 1 1 1 1 2 2 2 2 2 3 2 2 2 2 3 4 4 5 6 7 7 6 6 6 7 7 7 7 8 8 9 9 9 9 10
2 1 1 2 1 1 1 1 1 1 2 2 2 2 2 2 2 2 2 2 2 2 2 3 4 5 6 7 7 7 7 8 8 8 8 8 8 9 9 10 10 10 11
2 2 2 2 1 1 1 2 2 2 2 2 2 2 2 3 2 3 3 2 2 2 2 2 2 4 6 7 7 8 8 8 9 9 9 9 9 9 10 10 11 11 12
2 2 2 2 2 2 3 3 2 2 1 1 0 2 2 2 2 2 2 2 3 3 2 2 2 2 3 6 7 8 9 9 10 10 10 10 10 11 11 12 12 12 12
3 2 2 2 2 2 3 3 2 1 1 1 1 0 2 2 2 2 2 3 3 2 2 3 3 3 2 2 4 8 9 10 11 11 11 11 12 12 12 12 13 13 13
3 3 3 3 3 3 3 3 3 3 2 2 2 2 1 2 3 2 2 2 2 2 3 3 3 3 3 2 3 6 8 10 11 11 11 11 12 12 13 12 12 12 12
3 3 3 3 3 3 3 3 3 3 3 2 2 2 2 2 2 2 2 2 2 3 3 3 3 3 3 2 3 6 8 9 11 12 12 13 13 13 13 12 12 12 12
3 3 3 3 3 3 4 3 3 3 3 3 3 2 1 1 2 2 4 3 2 2 2 3 3 3 3 3 3 5 8 9 11 11 12 12 12 13 13 13 12 12 12
3 3 4 3 4 3 4 4 4 4 4 4 3 3 2 2 2 2 4 4 3 3 2 2 3 2 2 3 4 7 7 8 9 10 11 11 12 13 13 12 12 12 12
3 4 4 4 4 4 4 3 4 5 5 5 5 4 3 3 2 2 3 3 4 3 2 2 3 2 2 2 3 7 7 8 9 9 10 10 11 11 11 11 11 11 11
4 4 4 4 4 4 4 3 3 4 4 5 5 4 3 3 3 3 3 2 4 3 3 4 2 2 2 2 4 6 5 8 8 9 9 9 9 9 10 10 10 10 10
4 4 4 4 4 4 4 3 3 4 3 4 4 4 4 3 3 3 3 3 3 4 5 3 2 2 2 2 4 3 3 7 8 8 8 8 8 9 9 10 10 10 10
4 4 4 4 3 3 3 3 3 3 3 4 4 4 4 3 3 3 3 3 3 4 5 3 3 3 3 3 5 3 3 7 7 8 8 8 8 8 8 9 9 9 9
4 4 4 3 3 3 3 3 3 3 4 4 4 5 5 4 4 3 3 3 3 3 5 4 2 2 3 3 4 3 3 3 3 7 8 8 7 8 8 9 9 9 9
4 4 3 3 3 3 3 3 4 3 4 4 4 4 5 4 4 4 3 4 3 3 4 5 3 2 3 3 3 3 3 3 3 6 7 8 8 8 8 9 9 9 9
3 3 3 3 3 3 3 3 3 4 4 4 4 4 4 4 5 3 4 3 3 3 3 3 4 2 2 2 3 3 3 3 3 4 6 7 8 8 9 9 8 8 8
3 3 3 3 3 3 3 3 3 3 3 4 4 4 4 4 5 4 4 4 3 2 2 2 3 2 2 2 2 2 3 3 3 3 5 5 7 8 8 8 7 6 6
3 3 3 3 3 3 3 3 3 3 3 3 3 3 4 4 5 4 3 3 2 2 2 2 2 2 2 1 2 2 3 3 3 2 2 3 4 3 4 6 6 6 6
2 2 3 3 3 3 4 4 3 2 2 3 3 3 3 3 4 5 5 4 3 3 3 3 3 3 3 2 2 2 2 2 3 2 2 4 3 3 3 3 5 6 6
2 3 3 3 3 4 4 4 3 2 2 2 3 3 2 2 3 2 2 2 2 3 4 3 3 3 3 3 2 2 2 2 3 2 2 4 3 4 3 4 7 6 6
3 3 3 3 3 3 4 4 4 3 2 2 2 2 2 2 2 2 1 1 1 2 2 2 2 3 2 2 3 2 2 1 1 2 1 2 3 3 4 4 6 5 5
3 3 2 3 3 4 5 4 4 2 2 2 2 2 2 2 2 2 1 1 1 1 2 2 2 2 2 2 1 0 0 1 2 2 1 1 2 3 3 2 3 5 6
3 2 2 2 2 3 4 4 4 1 2 2 2 2 3 2 2 2 2 2 1 1 0 1 2 3 2 2 3 1 1 1 1 2 1 1 1 2 3 2 2 3 4
Wind_Direction
6 344 328 324 309 288 259 293 285 263 262 264 252 251 261 254 239 230 244 237 225 232 244 255 252 246 243 242 248 253 252 255 263 269 275 281 282 281 280 281 284 285 283
341 297 292 294 281 264 250 245 260 257 247 247 250 245 239 246 243 229 224 231 230 232 238 244 254 257 253 250 250 255 255 261 269 273 272 276 278 277 279 281 281 282 284
263 255 250 251 254 261 269 266 274 272 264 250 244 248 243 238 239 234 223 219 230 237 241 244 250 254 254 255 257 259 261 264 267 270 273 276 277 276 275 276 278 277 281
257 248 242 247 251 252 250 253 257 259 262 248 243 247 246 241 235 234 221 214 215 232 245 254 255 255 257 257 259 260 259 262 266 270 272 275 277 276 274 275 277 277 279
248 238 250 259 259 246 246 260 264 242 259 262 256 253 249 240 236 236 228 226 222 225 227 249 257 261 263 264 265 264 262 264 266 267 272 275 277 278 277 276 275 277 277
249 229 239 262 245 238 255 252 249 254 249 254 283 280 261 252 237 224 232 238 231 232 234 240 244 261 267 267 270 268 265 264 266 267 269 271 274 278 280 278 275 277 277
255 233 231 240 244 235 244 240 228 241 252 268 334 310 295 265 242 234 238 231 230 233 232 233 235 241 261 269 274 274 272 269 269 269 270 271 274 277 278 280 278 276 278
261 254 235 233 240 245 245 247 227 219 242 193 157 318 303 306 284 262 245 230 236 238 239 245 242 243 243 248 275 282 277 277 274 272 272 273 275 276 277 280 281 278 278
257 249 243 238 238 235 240 239 227 213 222 232 191 186 199 250 298 285 259 247 247 245 247 245 238 237 241 243 263 278 281 282 278 278 278 277 276 277 278 280 283 279 279
264 256 247 240 239 236 241 245 235 223 214 228 230 215 216 211 237 287 290 277 264 258 256 267 255 248 244 243 265 282 284 284 282 281 282 281 280 279 278 277 280 278 279
272 266 254 246 245 243 241 241 244 235 222 219 217 222 236 261 237 243 272 283 287 269 263 254 249 251 254 248 251 268 283 283 281 282 282 282 281 280 279 278 278 278 279
271 267 260 250 247 244 241 238 237 239 233 230 230 222 216 217 227 231 257 272 277 282 280 262 251 255 259 255 264 280 281 282 284 286 287 288 287 285 284 280 278 278 280
271 265 260 252 251 249 245 241 238 241 237 234 234 235 230 231 222 230 254 276 285 290 281 280 257 257 273 273 270 284 279 282 283 284 285 286 287 290 293 288 283 282 284
259 263 255 252 255 255 256 245 242 242 240 235 238 236 237 235 226 225 231 248 281 284 274 268 284 260 268 266 273 290 283 283 283 284 287 288 287 289 291 292 291 289 290
263 260 258 255 254 253 253 246 241 243 239 238 240 237 239 235 229 232 226 221 233 266 272 255 266 274 273 273 283 282 281 287 292 290 288 288 289 289 289 290 291 290 291
264 258 261 260 256 253 254 248 244 241 240 244 236 230 233 235 232 229 227 229 225 239 264 261 254 282 291 300 298 293 279 295 295 292 286 284 286 289 291 290 289 289 290
261 255 256 260 261 258 252 243 246 245 240 245 239 228 233 233 232 232 226 225 235 233 259 280 275 286 285 287 300 298 287 282 288 295 290 285 287 289 290 291 289 288 288
260 258 256 257 262 263 254 242 251 252 243 241 238 234 236 236 233 233 226 226 233 232 241 270 283 279 278 280 287 292 295 293 286 290 294 291 290 290 290 288 289 288 288
260 265 259 255 259 262 261 257 250 255 246 242 237 235 237 233 233 232 230 231 238 247 245 255 274 283 283 294 302 306 303 297 300 304 295 291 294 294 293 293 290 287 291
249 252 256 255 254 257 262 266 258 261 257 251 241 236 236 235 235 230 232 230 229 234 241 251 265 278 284 292 291 300 309 303 301 309 300 300 302 300 296 298 297 293 293
260 254 257 266 262 251 254 268 260 251 251 257 253 244 244 248 249 248 246 227 219 226 236 248 263 278 278 290 282 288 293 304 302 306 309 307 310 302 293 293 297 300 298
272 266 255 252 260 265 275 272 272 255 254 261 263 260 257 257 264 276 275 267 248 233 235 239 252 258 269 276 274 275 289 311 303 314 317 306 312 302 298 288 297 303 307
266 258 254 248 252 264 277 278 285 270 261 262 259 251 259 271 278 259 278 305 299 290 262 239 237 252 255 253 248 264 275 287 278 292 308 298 303 295 302 299 299 303 307
262 257 259 259 260 268 280 280 283 263 259 264 258 246 239 246 254 247 206 233 291 306 299 279 242 245 257 243 225 231 232 276 297 311 319 285 298 298 307 303 304 305 312
276 273 268 255 255 266 275 276 277 251 254 265 265 253 244 238 261 269 225 218 283 314 336 348 335 331 317 308 294 43 324 315 310 308 308 263 298 313 314 311 319 336 341
271 274 273 260 252 256 270 278 281 244 244 257 265 262 260 258 265 271 230 200 227 276 12 17 3 354 348 339 331 307 247 262 299 292 281 301 307 337 325 316 322 326 332